Temperature
16 16 16 16 15 15 15 15 15 15 15 15 15 15 14 14 14 14 14 14 14 14 14 14 14 14 13 13 13 13 13 13 13 12 12 11 11 11 11 11 11 11 11
16 16 16 16 15 15 15 15 15 15 15 15 15 14 14 14 14 14 14 14 14 14 14 14 13 13 13 13 13 13 13 13 12 12 12 11 11 11 11 11 11 10 10
16 16 16 16 15 15 15 15 15 15 15 14 14 14 14 14 14 14 14 14 14 14 14 13 13 13 13 13 13 13 13 12 12 12 12 11 11 11 11 10 10 10 10
16 16 16 16 15 15 15 15 15 15 15 14 14 14 14 14 14 14 14 14 14 14 13 13 13 13 13 13 12 12 12 12 12 12 12 11 11 11 10 10 10 10 10
16 16 16 15 15 15 15 15 15 15 15 14 14 14 14 14 14 14 14 14 13 13 13 13 13 13 13 12 12 12 12 12 12 12 11 11 11 11 10 10 10 10 10
16 16 16 15 15 15 15 15 15 15 14 14 14 14 14 14 14 14 14 13 13 13 13 13 13 12 12 12 12 12 12 12 12 11 11 11 11 10 10 10 10 10 9
15 15 15 15 15 15 15 15 14 14 14 14 14 14 14 14 14 13 13 13 13 13 13 13 12 12 12 12 12 12 12 11 11 11 11 11 10 10 10 10 9 9 9
15 15 15 15 15 15 15 14 14 14 14 14 14 14 14 14 13 13 13 13 13 13 12 12 12 12 12 12 12 12 11 11 11 11 10 10 10 10 10 9 9 9 9
15 15 15 15 15 15 15 14 14 14 14 14 14 14 13 13 13 13 13 13 13 13 12 12 12 12 12 11 11 11 11 11 10 10 10 10 10 9 9 9 9 9 9
15 15 15 15 15 15 14 14 14 14 14 14 13 13 13 13 13 13 13 12 12 12 12 12 12 12 11 11 11 11 11 11 10 10 10 10 9 9 9 9 9 9 8
15 15 15 15 14 14 14 14 14 14 13 13 13 13 13 13 13 12 12 12 12 12 12 12 12 11 11 11 11 10 10 10 10 9 9 9 9 9 9 8 8 8 8
14 14 14 14 14 14 14 14 13 13 13 13 13 13 13 13 12 12 12 12 12 12 12 12 11 11 11 11 10 10 10 9 9 9 9 9 9 8 8 8 8 7 7
14 14 14 14 14 14 14 13 13 13 13 13 13 13 12 12 12 12 12 12 11 11 11 11 11 11 10 10 10 10 9 9 9 9 9 8 8 8 7 7 7 7 7
14 14 14 14 14 13 13 13 13 13 13 12 12 12 12 12 12 12 11 11 11 11 11 11 10 10 10 10 10 9 9 9 9 8 8 8 8 7 7 7 7 7 6
14 14 13 13 13 13 13 13 13 13 12 12 12 12 12 12 12 11 11 11 11 11 11 10 10 10 10 10 9 9 9 9 8 8 8 8 7 7 7 7 6 6 6
13 13 13 13 13 13 13 12 12 12 12 12 12 12 12 12 11 11 11 11 11 10 10 10 10 10 10 9 9 9 9 8 8 8 8 7 7 7 7 6 6 6 6
13 13 13 13 13 12 12 12 12 12 12 11 11 11 11 11 11 11 11 10 10 10 10 10 10 10 9 9 9 9 8 8 8 7 7 7 7 6 6 6 6 5 5
13 13 13 13 12 12 12 12 12 12 11 11 11 11 11 11 11 10 10 10 10 10 10 10 10 9 9 9 8 8 8 8 7 7 7 7 6 6 6 5 5 5 5
13 13 13 12 12 12 12 12 12 11 11 11 11 11 10 10 10 10 10 10 10 10 10 10 10 9 9 8 8 8 8 7 7 7 7 6 6 6 5 5 5 4 4
13 12 12 12 12 12 11 11 11 11 11 11 11 10 10 10 10 10 10 10 10 10 10 9 9 9 9 8 8 8 7 7 7 7 6 6 6 5 5 5 4 4 4
12 12 12 12 12 12 11 11 11 11 11 11 11 10 10 10 10 10 10 9 9 9 9 9 9 9 8 8 8 8 7 7 7 6 6 6 6 5 5 4 4 4 3
12 12 12 11 11 11 11 11 11 11 10 10 10 10 10 10 10 9 9 9 9 9 9 9 8 8 8 8 7 7 7 7 6 6 6 6 5 5 4 4 4 3 3
12 12 12 11 11 11 11 11 11 10 10 10 10 10 10 9 9 9 9 9 9 9 8 8 8 8 8 7 7 7 7 6 6 6 6 5 5 5 4 4 3 3 3
12 12 11 11 11 11 11 11 10 10 10 10 10 10 9 9 9 9 9 9 8 8 8 8 8 8 7 7 7 7 6 6 6 6 5 5 5 4 4 4 3 3 2
11 11 11 11 11 10 10 10 10 10 10 10 10 9 9 9 9 9 9 8 8 8 8 8 8 7 7 7 7 6 6 6 6 5 5 5 4 4 4 3 3 3 2
11 11 11 11 10 10 10 10 10 10 10 9 9 9 9 9 9 8 8 8 8 8 8 7 7 7 7 7 6 6 6 5 5 5 5 4 4 4 3 3 3 2 2
Wind_Speed
6 5 5 5 5 5 4 4 4 4 4 4 4 4 3 3 4 4 3 4 4 3 2 2 1 1 1 1 2 2 2 2 2 1 1 2 3 3 4 5 5 5 6
6 5 6 5 5 5 4 4 4 4 4 4 4 4 4 4 4 4 4 4 4 3 3 3 2 2 2 1 2 2 1 2 3 2 1 2 1 1 2 3 4 4 5
6 6 5 5 6 5 5 4 4 5 4 4 4 5 4 4 4 4 4 4 4 3 3 3 2 3 2 2 2 2 2 2 3 3 1 1 1 2 2 2 4 4 4
6 6 6 6 6 6 5 4 5 5 5 4 4 4 4 4 4 4 4 4 3 3 2 2 2 3 3 3 2 2 3 4 4 3 2 1 1 1 1 2 2 2 2
6 7 7 6 5 5 5 4 4 5 5 4 4 4 3 3 4 5 5 5 4 3 2 2 2 3 4 4 3 3 4 4 3 3 2 1 1 1 0 0 0 1 2
6 6 6 5 5 5 5 5 5 4 4 4 4 4 4 3 5 7 6 5 4 4 3 2 2 2 3 4 5 6 6 5 4 3 2 1 1 1 0 1 1 1 2
6 6 6 6 6 5 5 5 5 5 4 4 4 4 4 4 6 7 7 5 4 4 3 2 2 2 3 3 5 6 5 4 5 4 3 3 2 3 2 1 1 1 2
6 6 6 6 6 5 5 5 4 4 4 4 4 3 3 4 6 7 8 5 4 3 3 3 3 2 3 4 4 4 3 3 3 3 3 2 2 3 4 3 2 1 0
6 6 6 7 7 6 6 5 4 4 3 3 3 4 4 3 5 7 8 4 3 2 2 3 3 3 4 6 5 5 3 2 4 5 4 4 3 3 4 3 2 2 1
7 7 7 7 8 7 6 5 3 3 3 4 3 3 4 4 5 7 8 4 4 2 2 2 3 4 5 7 5 5 3 1 2 3 4 5 5 4 4 2 2 2 0
5 6 6 6 7 7 6 5 5 4 4 3 3 2 2 3 5 7 8 4 4 3 2 2 2 4 5 6 5 4 4 4 3 3 3 3 3 3 3 2 1 2 2
5 6 6 6 6 6 6 5 5 6 5 4 3 2 1 2 3 5 8 7 6 4 3 2 3 5 5 5 4 4 6 6 3 3 2 2 1 1 2 2 2 2 1
6 6 5 6 5 6 7 6 5 5 5 4 4 3 2 1 2 4 7 7 7 4 3 4 5 6 5 4 4 5 6 4 3 3 1 0 1 1 1 2 3 3 4
7 6 6 6 5 5 5 6 6 6 5 5 5 4 3 2 2 2 3 4 5 4 3 4 6 6 5 4 4 3 3 3 3 2 1 1 0 1 1 1 1 1 1
7 6 6 6 6 6 4 4 6 6 7 7 6 6 6 5 6 8 7 5 5 5 5 3 3 2 2 1 1 2 2 2 2 1 1 1 0 0 1 1 1 1 1
6 6 6 5 5 5 5 2 1 3 5 6 6 6 5 5 7 8 8 8 9 10 6 3 3 3 3 3 3 2 2 2 2 2 2 2 1 1 0 1 1 0 1
7 7 6 6 6 6 6 6 4 2 3 4 5 6 6 7 8 8 9 9 9 10 5 4 4 4 4 3 3 3 3 2 2 3 2 2 1 1 1 1 0 1 2
6 7 7 6 6 6 6 6 5 5 4 2 3 6 7 8 8 8 9 8 4 4 3 4 4 4 4 4 4 3 3 2 2 3 2 2 2 2 1 1 2 2 2
6 5 6 6 5 5 5 5 5 5 5 3 2 2 5 6 7 8 9 4 5 5 4 4 4 4 4 4 4 3 3 3 3 3 3 3 3 2 2 2 2 3 2
5 7 7 6 6 5 5 5 5 5 5 4 4 4 4 4 3 4 4 3 4 4 4 4 4 4 4 4 4 3 3 3 3 3 3 2 2 3 3 3 3 2 3
5 6 8 6 6 6 6 6 6 6 6 6 5 5 8 5 5 5 5 5 5 5 5 5 4 4 4 4 4 4 4 4 4 3 3 3 3 3 3 3 3 3 3
5 6 6 6 6 6 6 6 6 6 6 6 4 5 9 5 4 4 4 5 4 4 4 4 4 4 5 5 5 5 4 4 4 3 3 3 3 3 3 3 3 3 3
6 6 6 5 5 6 6 5 6 6 6 6 6 5 5 5 5 5 5 4 4 4 5 5 4 4 5 6 7 6 6 5 5 5 4 4 4 3 3 3 4 3 4
6 6 6 6 5 6 6 6 6 6 6 6 6 6 6 6 5 5 5 4 4 4 5 5 6 6 7 6 6 7 7 7 7 7 6 5 4 4 3 3 4 4 4
6 6 6 6 6 6 6 6 6 6 6 6 6 6 6 5 5 5 5 5 5 4 5 6 6 6 7 8 7 7 8 8 8 7 6 5 4 4 4 4 3 3 3
6 7 6 6 6 6 6 6 6 7 7 6 6 6 6 6 5 5 5 5 5 5 5 5 6 7 7 7 8 9 9 9 9 8 6 5 4 4 4 3 4 3 3
Wind_Direction
180 183 182 185 178 173 177 182 176 167 161 158 157 153 157 149 141 132 131 133 128 114 108 114 102 95 100 97 102 103 104 130 156 284 358 11 41 49 41 47 50 50 49
182 182 183 175 166 172 178 180 165 157 155 159 157 157 160 155 151 151 148 140 136 131 126 119 120 111 92 98 105 112 118 126 149 160 11 17 34 40 44 49 38 43 46
175 177 178 172 171 179 179 173 164 161 154 151 152 156 160 160 156 155 150 142 137 138 140 139 144 128 111 108 106 108 104 98 107 136 100 38 40 43 43 40 37 27 33
173 175 184 188 182 182 176 170 170 165 157 158 159 157 159 158 156 149 145 140 134 130 133 140 144 144 151 144 130 126 114 101 100 110 99 49 33 15 57 44 16 10 10
174 180 191 187 175 165 161 161 160 158 158 158 152 150 149 155 163 152 150 146 142 132 118 114 129 146 151 146 140 143 130 116 109 110 107 73 34 47 28 21 11 344 352
175 184 179 169 165 164 164 155 150 148 147 147 152 155 158 172 164 159 150 144 144 141 134 114 106 100 116 122 127 135 137 137 144 136 138 154 230 224 180 123 115 35 326
176 174 165 163 163 166 161 152 155 159 152 149 159 160 161 168 162 155 152 144 145 150 145 127 109 99 104 106 104 101 102 120 145 154 158 197 206 210 166 142 163 173 238
173 169 164 160 160 155 152 159 163 158 159 162 165 168 163 172 162 153 145 132 129 131 135 143 146 144 131 125 116 99 82 70 106 125 155 192 187 175 175 174 176 172 297
178 175 171 165 162 159 162 166 161 153 158 160 164 167 169 179 162 153 140 131 127 130 132 138 148 152 149 136 125 119 94 54 73 86 88 85 83 101 124 107 92 83 341
187 181 174 169 167 170 172 162 151 150 154 152 153 168 176 180 169 159 145 140 138 140 121 135 158 155 149 143 139 139 141 166 99 75 60 50 54 64 86 113 149 136 182
182 169 167 170 170 167 161 154 149 144 136 137 140 146 167 178 171 164 154 155 160 155 158 175 178 159 151 148 144 152 168 150 121 105 79 50 45 45 42 44 98 159 175
162 163 166 164 163 158 153 153 151 148 145 147 142 139 158 175 171 172 167 162 154 156 178 188 173 158 152 148 144 145 138 123 112 102 89 60 35 11 2 26 39 57 85
158 164 167 162 159 157 158 155 151 155 160 167 167 169 178 181 175 169 169 166 160 157 164 156 151 151 145 138 140 138 130 121 121 117 129 221 269 295 14 31 35 39 32
165 168 165 164 161 159 162 164 165 170 171 175 179 183 182 180 183 168 163 159 155 148 132 124 123 122 119 119 116 118 119 137 144 157 177 212 3 32 29 16 9 3 9
169 167 166 171 168 167 170 177 180 187 185 183 190 186 182 195 202 180 170 174 171 159 129 102 99 102 111 104 104 115 121 124 141 159 163 158 132 70 342 2 29 37 10
173 173 170 170 170 167 161 141 108 167 181 183 178 175 188 187 172 171 174 172 162 150 134 140 158 168 176 180 177 177 172 180 192 186 182 188 194 204 262 359 25 12 301
180 180 173 172 174 172 170 167 162 116 119 156 170 172 170 165 167 167 166 162 159 152 150 171 181 189 193 191 190 191 200 204 193 188 189 195 198 206 224 255 284 299 290
181 179 173 175 178 178 180 179 175 170 170 182 187 180 173 169 167 161 152 139 150 169 181 185 193 195 196 196 197 198 194 182 186 196 195 195 196 206 225 238 241 256 271
182 182 177 172 172 176 174 172 173 176 177 171 154 168 173 165 161 159 152 161 177 187 195 196 196 195 197 198 197 192 189 193 195 196 202 205 204 206 224 235 242 259 267
187 181 172 169 167 167 168 171 177 181 180 179 184 182 157 142 159 174 181 186 189 195 196 197 198 197 197 195 190 185 190 196 196 204 209 211 214 213 219 226 233 246 252
180 180 174 170 174 178 179 183 184 185 186 191 198 187 171 176 186 188 192 196 199 201 201 197 197 198 196 189 188 191 196 204 205 208 210 212 213 226 229 223 226 235 244
177 177 178 180 182 183 184 185 184 187 191 191 191 183 180 178 184 189 197 204 204 199 191 186 193 194 192 192 193 197 202 209 209 208 212 213 215 220 222 228 231 236 242
176 176 179 182 182 183 186 187 187 189 192 193 188 184 185 192 193 195 199 198 192 189 185 182 188 195 195 196 197 197 203 210 212 207 205 207 212 215 219 226 233 241 245
177 179 183 185 185 187 189 191 192 194 193 193 192 191 193 195 195 195 193 188 184 188 187 188 192 198 197 196 200 204 209 211 208 205 200 202 207 211 215 226 235 244 246
181 183 186 188 190 191 192 192 193 193 194 194 194 194 193 192 193 192 188 182 181 189 190 189 193 197 201 202 202 205 209 208 203 197 192 195 201 206 213 224 233 244 253
185 186 189 190 192 191 191 195 197 196 197 197 194 192 190 191 192 190 185 182 185 190 192 193 197 199 203 206 209 209 208 205 202 196 185 184 193 207 210 222 232 235 245
Height
1532 1534 1536 1537 1539 1541 1543 1544 1546 1547 1549 1550 1551 1552 1553 1554 1555 1555 1556 1556 1557 1557 1557 1557 1557 1557 1557 1557 1557 1556 1556 1556 1555 1555 1555 1555 1554 1554 1554 1553 1553 1552 1551
1529 1532 1534 1536 1537 1539 1541 1542 1544 1546 1547 1548 1550 1551 1552 1553 1553 1554 1555 1555 1556 1556 1556 1556 1556 1556 1556 1556 1556 1556 1555 1555 1555 1554 1554 1554 1554 1554 1553 1553 1552 1552 1551
1527 1530 1532 1534 1535 1537 1539 1541 1542 1544 1545 1547 1548 1549 1550 1551 1552 1553 1554 1554 1555 1555 1555 1555 1555 1555 1555 1555 1555 1555 1554 1554 1554 1554 1553 1553 1553 1553 1553 1552 1552 1551 1550
1524 1527 1529 1531 1533 1535 1537 1539 1541 1542 1544 1545 1546 1548 1549 1550 1551 1552 1552 1553 1554 1554 1554 1554 1554 1554 1555 1555 1554 1554 1554 1554 1553 1553 1553 1553 1553 1553 1552 1552 1551 1551 1550
1522 1525 1527 1530 1532 1534 1535 1537 1539 1540 1542 1544 1545 1546 1547 1548 1549 1550 1551 1552 1552 1552 1553 1553 1553 1554 1554 1554 1554 1553 1553 1553 1553 1553 1552 1552 1552 1551 1551 1551 1550 1550 1549
1520 1522 1525 1527 1529 1531 1533 1535 1537 1538 1540 1542 1543 1544 1545 1546 1547 1549 1549 1550 1551 1551 1552 1552 1552 1553 1553 1553 1553 1553 1553 1552 1552 1552 1551 1551 1551 1551 1550 1550 1549 1548 1547
1517 1520 1523 1525 1527 1529 1531 1533 1535 1536 1538 1540 1541 1542 1543 1545 1546 1547 1548 1549 1549 1550 1550 1551 1551 1552 1552 1552 1552 1552 1552 1552 1552 1551 1551 1550 1550 1549 1549 1548 1548 1547 1546
1515 1518 1520 1523 1525 1527 1529 1531 1533 1535 1536 1538 1539 1540 1542 1543 1544 1545 1546 1547 1548 1548 1549 1550 1550 1550 1551 1551 1551 1551 1551 1551 1551 1550 1550 1549 1549 1548 1548 1547 1546 1546 1545
1513 1515 1518 1520 1523 1525 1527 1529 1531 1532 1534 1535 1537 1538 1539 1540 1542 1543 1545 1545 1546 1547 1547 1548 1548 1549 1549 1550 1550 1550 1550 1549 1549 1549 1549 1548 1548 1547 1546 1546 1545 1544 1543
1510 1513 1516 1518 1521 1523 1525 1527 1529 1530 1532 1533 1534 1536 1537 1538 1540 1541 1543 1543 1544 1545 1546 1546 1547 1547 1548 1548 1548 1548 1548 1548 1548 1548 1547 1547 1546 1545 1545 1544 1543 1542 1541
1508 1511 1513 1516 1518 1520 1523 1525 1526 1528 1529 1531 1532 1534 1535 1537 1538 1539 1540 1541 1542 1543 1543 1544 1545 1546 1546 1546 1547 1547 1547 1547 1546 1546 1546 1545 1545 1544 1543 1542 1541 1540 1539
1506 1508 1511 1513 1516 1518 1520 1522 1524 1525 1527 1528 1530 1531 1533 1534 1536 1537 1538 1539 1540 1541 1541 1542 1543 1544 1544 1545 1545 1545 1545 1545 1545 1544 1544 1543 1543 1542 1541 1540 1539 1538 1537
1503 1506 1509 1511 1513 1515 1518 1519 1521 1523 1524 1526 1527 1528 1530 1531 1533 1534 1536 1537 1538 1539 1539 1540 1541 1541 1542 1542 1543 1543 1543 1543 1543 1542 1542 1541 1541 1540 1539 1538 1537 1536 1535
1501 1503 1506 1508 1510 1512 1515 1517 1518 1520 1521 1523 1524 1526 1527 1529 1530 1531 1532 1534 1535 1536 1537 1537 1538 1539 1539 1540 1540 1540 1540 1540 1540 1540 1540 1539 1539 1538 1537 1536 1535 1533 1532
1498 1500 1503 1505 1507 1509 1511 1514 1515 1517 1519 1520 1522 1523 1525 1526 1527 1529 1530 1531 1532 1533 1534 1535 1535 1536 1536 1536 1537 1537 1537 1538 1538 1537 1537 1537 1536 1535 1534 1533 1532 1531 1529
1495 1497 1499 1502 1504 1506 1508 1510 1512 1514 1516 1518 1520 1521 1523 1524 1525 1526 1527 1528 1529 1530 1531 1531 1532 1532 1533 1533 1534 1534 1534 1534 1535 1535 1534 1534 1533 1532 1531 1530 1529 1528 1526
1492 1494 1496 1498 1500 1502 1504 1506 1508 1511 1513 1515 1517 1518 1520 1521 1522 1523 1524 1525 1526 1527 1527 1528 1529 1529 1530 1530 1531 1531 1531 1532 1532 1532 1531 1531 1530 1529 1528 1527 1526 1525 1523
1489 1491 1492 1494 1497 1499 1501 1503 1505 1506 1508 1510 1513 1515 1516 1518 1519 1520 1521 1522 1522 1523 1523 1524 1525 1526 1526 1527 1527 1528 1528 1529 1529 1528 1528 1527 1526 1526 1525 1524 1523 1521 1520
1486 1487 1489 1491 1493 1495 1497 1499 1502 1503 1505 1507 1509 1511 1513 1514 1515 1516 1517 1518 1518 1519 1520 1521 1522 1522 1523 1523 1524 1524 1525 1525 1525 1525 1524 1524 1523 1522 1521 1520 1519 1518 1517
1483 1484 1486 1488 1489 1492 1493 1496 1498 1499 1501 1503 1505 1507 1508 1509 1510 1511 1513 1513 1514 1515 1516 1517 1518 1518 1519 1520 1520 1520 1521 1521 1521 1521 1520 1520 1519 1518 1517 1516 1515 1514 1513
1479 1481 1483 1484 1486 1488 1490 1492 1494 1496 1497 1499 1501 1503 1504 1505 1506 1507 1508 1509 1510 1511 1512 1513 1514 1514 1515 1515 1516 1516 1516 1516 1517 1517 1516 1515 1515 1514 1514 1513 1512 1510 1509
1476 1477 1479 1481 1483 1485 1486 1488 1490 1492 1493 1495 1497 1499 1500 1501 1502 1504 1505 1506 1507 1508 1509 1509 1510 1510 1511 1511 1511 1511 1512 1512 1512 1512 1512 1511 1511 1510 1509 1509 1507 1506 1505
1472 1474 1475 1477 1479 1481 1483 1484 1486 1487 1489 1491 1492 1494 1495 1497 1498 1499 1501 1502 1503 1504 1504 1505 1505 1506 1506 1507 1507 1507 1507 1507 1508 1507 1507 1507 1507 1506 1505 1504 1503 1502 1501
1468 1470 1471 1473 1474 1476 1477 1479 1481 1483 1484 1486 1487 1489 1491 1492 1493 1495 1496 1498 1499 1499 1500 1500 1501 1501 1501 1501 1502 1502 1502 1503 1503 1503 1503 1502 1502 1502 1501 1500 1499 1498 1497
1464 1466 1467 1468 1470 1471 1473 1474 1476 1477 1479 1481 1482 1484 1485 1487 1488 1490 1491 1493 1494 1495 1495 1496 1496 1497 1497 1497 1497 1497 1498 1498 1498 1498 1498 1498 1497 1497 1496 1495 1494 1493 1492
1460 1461 1462 1464 1465 1466 1468 1469 1471 1472 1474 1475 1477 1478 1480 1482 1483 1485 1486 1487 1489 1490 1491 1491 1492 1492 1492 1493 1493 1493 1493 1494 1494 1494 1494 1493 1493 1492 1492 1491 1490 1489 1488